Location: Estes Park
(40.3770°N, 105.5210°W)
Time: 02:55:12
(UTC-06:00)

Envisat - Pass Details

Date: 12 October 2017
Orbit: 764 x 766 km, 98.2° (Epoch: 19 October)

Event Time Altitude Azimuth Distance (km) Brightness Sun altitude
Exits shadow 19:33:57 17° 68° (ENE) 1,840 4.4 -13.7°
Maximum altitude 19:34:18 18° 63° (ENE) 1,834 4.4 -13.8°
Drops below altitude 10° 19:37:34 10° 23° (NNE) 2,305 5.3 -14.4°
Sets 19:40:34 0° 4° (N) 3,235 6.2 -15.0°
